When you browse on this site, cookies collect data to enhance your experience and personalize the content and advertising you see.
Visit our Privacy Policy to learn more. By continuing to use the site, you agree to this use of cookies and data.
  • In Deutschland
  • Länderverzeichnis
  • Für 7 Tage
  • Wassertemperatur
  • Satellitenkarten
  • Wetterkarte
  • Widgets
  • user-avatar
    Anmelden

    Stündliche Wetter Wien

    Heute, 12 Dezember, Mittwoch

    Zeit Temperatur Niederschläge Wind Luftdruck Luftfeuchtigkeit
    00:00 0°C° 0.4 mm 5 m/S 743 mmHg 83%
    01:00 +1°C° 0 mm 3 m/S 743 mmHg 82%
    02:00 +1°C° 0.5 mm 3 m/S 743 mmHg 84%
    03:00 +1°C° 0.5 mm 3 m/S 744 mmHg 85%
    04:00 +1°C° 0.5 mm 3 m/S 744 mmHg 87%
    05:00 +1°C° 0.4 mm 3 m/S 744 mmHg 88%
    06:00 0°C° 0.4 mm 3 m/S 744 mmHg 89%
    07:00 +1°C° 0 mm 2 m/S 744 mmHg 91%
    08:00 +1°C° 0.1 mm 2 m/S 744 mmHg 89%
    09:00 +1°C° 0.1 mm 3 m/S 745 mmHg 88%
    10:00 +1°C° 0.1 mm 3 m/S 745 mmHg 86%
    11:00 +1°C° 0.1 mm 3 m/S 745 mmHg 84%
    12:00 +2°C° 0.1 mm 3 m/S 745 mmHg 83%
    13:00 +2°C° 0 mm 3 m/S 745 mmHg 82%
    14:00 +1°C° 0.2 mm 3 m/S 745 mmHg 84%
    15:00 +2°C° 0.2 mm 2 m/S 746 mmHg 86%
    16:00 +1°C° 0.2 mm 2 m/S 746 mmHg 88%
    17:00 +1°C° 0.2 mm 2 m/S 746 mmHg 88%
    18:00 +1°C° 0.2 mm 2 m/S 746 mmHg 89%
    19:00 +1°C° 0.2 mm 2 m/S 746 mmHg 90%
    20:00 +1°C° 0.1 mm 1 m/S 747 mmHg 90%
    21:00 +1°C° 0.1 mm 1 m/S 747 mmHg 90%
    22:00 +1°C° 0.1 mm 1 m/S 747 mmHg 91%
    23:00 0°C° 0 mm 1 m/S 747 mmHg 91%

    Morgen, 13 Dezember, Donnerstag

    Zeit Temperatur Niederschläge Wind Luftdruck Luftfeuchtigkeit
    00:00 0°C° 0 mm 1 m/S 747 mmHg 92%
    01:00 -1°C° 0 mm 1 m/S 747 mmHg 92%
    02:00 -1°C° 0 mm 1 m/S 747 mmHg 93%
    03:00 -1°C° 0 mm 1 m/S 747 mmHg 93%
    04:00 -1°C° 0 mm 1 m/S 747 mmHg 93%
    05:00 -1°C° 0 mm 1 m/S 747 mmHg 93%
    06:00 -2°C° 0 mm 1 m/S 747 mmHg 94%
    07:00 -2°C° 0 mm 1 m/S 746 mmHg 94%
    08:00 -1°C° 0 mm 1 m/S 747 mmHg 91%
    09:00 0°C° 0 mm 1 m/S 747 mmHg 88%
    10:00 0°C° 0 mm 1 m/S 747 mmHg 85%
    11:00 +1°C° 0 mm 1 m/S 746 mmHg 84%
    12:00 +1°C° 0 mm 1 m/S 746 mmHg 82%
    13:00 +1°C° 0 mm 2 m/S 746 mmHg 80%
    14:00 -1°C° 0 mm 2 m/S 746 mmHg 83%
    15:00 -1°C° 0 mm 2 m/S 746 mmHg 86%
    16:00 -2°C° 0 mm 2 m/S 745 mmHg 88%
    17:00 -2°C° 0 mm 2 m/S 746 mmHg 90%
    18:00 0°C° 0 mm 1 m/S 746 mmHg 91%
    19:00 -1°C° 0 mm 1 m/S 746 mmHg 92%
    20:00 -1°C° 0 mm 1 m/S 746 mmHg 92%
    21:00 -1°C° 0 mm 1 m/S 746 mmHg 92%
    22:00 -1°C° 0 mm 1 m/S 746 mmHg 92%
    23:00 -3°C° 0 mm 2 m/S 746 mmHg 93%

    übermorgen, 14 Dezember, Freitag

    Zeit Temperatur Niederschläge Wind Luftdruck Luftfeuchtigkeit
    00:00 -3°C° 0 mm 2 m/S 746 mmHg 93%
    01:00 -3°C° 0 mm 2 m/S 747 mmHg 93%
    02:00 -3°C° 0 mm 2 m/S 746 mmHg 93%
    03:00 -4°C° 0 mm 2 m/S 746 mmHg 93%
    04:00 -4°C° 0 mm 2 m/S 746 mmHg 93%
    05:00 -4°C° 0 mm 2 m/S 747 mmHg 93%
    06:00 -4°C° 0 mm 2 m/S 747 mmHg 93%
    07:00 -4°C° 0 mm 2 m/S 747 mmHg 92%
    08:00 -3°C° 0 mm 2 m/S 747 mmHg 89%
    09:00 -3°C° 0 mm 2 m/S 747 mmHg 86%
    10:00 -2°C° 0 mm 2 m/S 748 mmHg 82%
    11:00 -1°C° 0 mm 2 m/S 748 mmHg 79%
    12:00 -1°C° 0 mm 2 m/S 747 mmHg 76%
    13:00 +1°C° 0 mm 2 m/S 747 mmHg 73%
    14:00 -1°C° 0 mm 2 m/S 747 mmHg 77%
    15:00 -2°C° 0 mm 2 m/S 747 mmHg 81%
    16:00 -3°C° 0 mm 2 m/S 747 mmHg 85%
    17:00 -3°C° 0 mm 2 m/S 748 mmHg 86%
    18:00 -1°C° 0 mm 1 m/S 748 mmHg 87%
    19:00 -2°C° 0 mm 1 m/S 748 mmHg 87%
    20:00 -2°C° 0 mm 1 m/S 748 mmHg 87%
    21:00 -2°C° 0 mm 1 m/S 749 mmHg 88%
    22:00 -2°C° 0 mm 1 m/S 749 mmHg 88%
    23:00 -2°C° 0 mm 1 m/S 749 mmHg 88%

    15 Dezember, Samstag

    Zeit Temperatur Niederschläge Wind Luftdruck Luftfeuchtigkeit
    00:00 -2°C° 0 mm 1 m/S 749 mmHg 88%
    01:00 -2°C° 0 mm 1 m/S 749 mmHg 88%
    02:00 -2°C° 0 mm 1 m/S 749 mmHg 88%
    03:00 -3°C° 0 mm 1 m/S 749 mmHg 88%
    04:00 -3°C° 0 mm 1 m/S 749 mmHg 89%
    05:00 -3°C° 0 mm 1 m/S 749 mmHg 89%
    06:00 -3°C° 0 mm 1 m/S 749 mmHg 90%
    07:00 -3°C° 0 mm 1 m/S 749 mmHg 90%
    08:00 -4°C° 0 mm 2 m/S 750 mmHg 87%
    09:00 -4°C° 0 mm 2 m/S 750 mmHg 85%
    10:00 -3°C° 0 mm 2 m/S 750 mmHg 82%
    11:00 -3°C° 0 mm 2 m/S 750 mmHg 80%
    12:00 -2°C° 0 mm 3 m/S 749 mmHg 78%
    13:00 -1°C° 0 mm 3 m/S 749 mmHg 75%
    14:00 -2°C° 0 mm 3 m/S 749 mmHg 79%
    15:00 -2°C° 0 mm 3 m/S 749 mmHg 82%
    16:00 -3°C° 0 mm 2 m/S 749 mmHg 85%
    17:00 -3°C° 0 mm 2 m/S 749 mmHg 85%
    18:00 -4°C° 0 mm 3 m/S 749 mmHg 85%
    19:00 -4°C° 0 mm 3 m/S 749 mmHg 85%
    20:00 -5°C° 0 mm 3 m/S 749 mmHg 85%
    21:00 -5°C° 0 mm 3 m/S 749 mmHg 85%
    22:00 -5°C° 0 mm 3 m/S 749 mmHg 86%
    23:00 -5°C° 0 mm 3 m/S 749 mmHg 86%

    16 Dezember, Sonntag

    Zeit Temperatur Niederschläge Wind Luftdruck Luftfeuchtigkeit
    00:00 -5°C° 0 mm 2 m/S 748 mmHg 86%
    01:00 -5°C° 0 mm 2 m/S 748 mmHg 87%
    02:00 -5°C° 0 mm 2 m/S 748 mmHg 87%
    03:00 -5°C° 0 mm 2 m/S 748 mmHg 87%
    04:00 -5°C° 0 mm 2 m/S 747 mmHg 87%
    05:00 -5°C° 0 mm 2 m/S 747 mmHg 88%
    06:00 -5°C° 0 mm 2 m/S 747 mmHg 88%
    07:00 -5°C° 0 mm 2 m/S 747 mmHg 89%
    08:00 -5°C° 0 mm 2 m/S 747 mmHg 86%
    09:00 -2°C° 0 mm 1 m/S 747 mmHg 82%
    10:00 -1°C° 0 mm 1 m/S 746 mmHg 79%
    11:00 -1°C° 0 mm 1 m/S 746 mmHg 76%
    12:00 0°C° 0 mm 1 m/S 746 mmHg 74%
    13:00 0°C° 0 mm 1 m/S 745 mmHg 71%
    14:00 0°C° 0 mm 1 m/S 745 mmHg 75%
    15:00 -1°C° 0 mm 1 m/S 745 mmHg 79%
    16:00 -2°C° 0 mm 1 m/S 745 mmHg 84%
    17:00 -2°C° 0 mm 1 m/S 745 mmHg 84%
    18:00 -2°C° 0 mm 1 m/S 745 mmHg 85%
    19:00 -3°C° 0 mm 1 m/S 746 mmHg 85%
    20:00 -3°C° 0 mm 1 m/S 746 mmHg 85%
    21:00 -2°C° 0 mm 1 m/S 746 mmHg 84%
    22:00 -2°C° 0 mm 1 m/S 746 mmHg 84%
    23:00 -2°C° 0 mm 1 m/S 746 mmHg 83%

    17 Dezember, Montag

    Zeit Temperatur Niederschläge Wind Luftdruck Luftfeuchtigkeit
    00:00 -2°C° 0 mm 1 m/S 746 mmHg 83%
    01:00 -2°C° 0 mm 1 m/S 746 mmHg 82%
    02:00 -1°C° 0 mm 1 m/S 746 mmHg 81%
    03:00 -1°C° 0 mm 1 m/S 745 mmHg 81%
    04:00 -1°C° 0 mm 1 m/S 745 mmHg 81%
    05:00 -1°C° 0 mm 1 m/S 745 mmHg 82%
    06:00 -1°C° 0 mm 1 m/S 745 mmHg 82%
    07:00 -1°C° 0 mm 1 m/S 746 mmHg 83%
    08:00 0°C° 0 mm 1 m/S 746 mmHg 82%
    09:00 0°C° 0 mm 1 m/S 746 mmHg 81%
    10:00 +1°C° 0 mm 1 m/S 746 mmHg 80%
    11:00 +2°C° 0 mm 1 m/S 746 mmHg 79%
    12:00 +2°C° 0 mm 1 m/S 746 mmHg 77%
    13:00 +3°C° 0 mm 1 m/S 746 mmHg 76%
    14:00 +2°C° 0 mm 1 m/S 746 mmHg 79%
    15:00 +1°C° 0 mm 1 m/S 746 mmHg 82%
    16:00 0°C° 0 mm 1 m/S 746 mmHg 86%
    17:00 0°C° 0 mm 1 m/S 747 mmHg 86%
    18:00 0°C° 0 mm 1 m/S 747 mmHg 87%
    19:00 0°C° 0 mm 1 m/S 747 mmHg 87%
    20:00 0°C° 0.1 mm 1 m/S 748 mmHg 87%
    21:00 +1°C° 0.1 mm 1 m/S 748 mmHg 87%
    22:00 +2°C° 0.1 mm 1 m/S 748 mmHg 87%
    23:00 +2°C° 0 mm 1 m/S 748 mmHg 88%
    Mehr zeigen